FW5146 Weather Reports


time (UTC)temp
C
wind
direction
speed
KPH
gust
KPH
rain 1hr
cm
rain 24hr
cm
rain mn
cm
humidity
%
barometer
mb
20260502161443 11 225 1.6 3.2 0.00 0.00 0.00 39 1025.7
20260502160446 10 157 1.6 4.8 0.00 0.00 0.00 42 1025.9
20260502151600 7 225 0.0 1.6 0.00 0.00 0.00 50 1026.3
20260502123745 -3 360 0.0 0.0 0.00 0.00 0.00 85 1025.3
20260502122743 -3 360 0.0 0.0 0.00 0.00 0.00 85 1025.2
20260502121842 -2 360 0.0 0.0 0.00 0.00 0.00 84 1025.2
20260502115844 -2 360 0.0 0.0 0.00 0.00 0.00 83 1025.2
20260502114843 -2 360 0.0 0.0 0.00 0.00 0.00 84 1025.2
20260502113843 -2 360 0.0 0.0 0.00 0.00 0.00 84 1025.0
20260502112942 -2 360 0.0 0.0 0.00 0.00 0.00 84 1025.0
20260502111042 -2 360 0.0 0.0 0.00 0.00 0.00 84 1025.1
20260502105043 -2 360 0.0 0.0 0.00 0.00 0.00 83 1025.0
20260502104141 -1 360 0.0 0.0 0.00 0.00 0.00 82 1025.1
20260502104044 -1 360 0.0 0.0 0.00 0.00 0.00 82 1025.1
20260502102142 -1 360 0.0 0.0 0.00 0.00 0.00 82 1024.9
20260502101143 -1 360 0.0 0.0 0.00 0.00 0.00 83 1024.8
20260502100143 -1 360 0.0 0.0 0.00 0.00 0.00 82 1024.7
20260502091341 -1 360 0.0 0.0 0.00 0.00 0.00 80 1024.6
20260502090345 0 360 0.0 0.0 0.00 0.00 0.00 80 1024.4
20260502070743 1 360 0.0 0.0 0.00 0.00 0.00 72 1024.5
20260502065743 1 360 0.0 0.0 0.00 0.00 0.00 71 1024.5
20260502065641 1 360 0.0 0.0 0.00 0.00 0.00 70 1024.7
20260502064644 2 360 0.0 0.0 0.00 0.00 0.00 68 1024.5
20260502062741 2 360 0.0 0.0 0.00 0.00 0.00 68 1024.4
20260502061742 2 360 0.0 0.0 0.00 0.00 0.00 66 1024.3
20260502060744 3 360 0.0 0.0 0.00 0.00 0.00 65 1024.3
20260502055828 3 360 0.0 0.0 0.00 0.00 0.00 65 1024.1
20260502055729 3 360 0.0 0.0 0.00 0.00 0.00 65 1024.1
20260502054730 3 360 0.0 0.0 0.00 0.00 0.00 63 1024.0
20260502053728 4 360 0.0 0.0 0.00 0.00 0.00 62 1024.1
20260502051728 5 360 0.0 0.0 0.00 0.00 0.00 59 1023.8
20260502050729 5 360 0.0 0.0 0.00 0.00 0.00 57 1023.8
20260502045728 6 360 0.0 0.0 0.00 0.00 0.00 55 1023.7
20260502045645 6 360 0.0 0.0 0.00 0.00 0.00 55 1023.7
20260502044728 6 360 0.0 0.0 0.00 0.00 0.00 52 1023.9
20260502043827 7 360 0.0 0.0 0.00 0.00 0.00 53 1023.8
20260502042828 7 360 1.6 1.6 0.00 0.00 0.00 52 1023.7
20260502040831 8 22 0.0 0.0 0.00 0.00 0.00 48 1023.5
20260502035928 8 22 0.0 0.0 0.00 0.00 0.00 46 1023.4
20260502034929 9 22 0.0 0.0 0.00 0.00 0.00 45 1023.3
20260502034028 10 22 3.2 3.2 0.00 0.00 0.00 44 1023.0
20260502033027 10 22 1.6 3.2 0.00 0.00 0.00 43 1023.0
20260502032029 10 22 1.6 3.2 0.00 0.00 0.00 43 1022.7
20260502031028 11 22 1.6 3.2 0.00 0.00 0.00 41 1022.6
20260502030127 11 22 3.2 6.4 0.00 0.00 0.00 39 1022.6
20260502025129 12 22 3.2 3.2 0.00 0.00 0.00 35 1022.4
20260502024128 13 349 0.0 6.4 0.00 0.00 0.00 33 1022.2
20260502022128 14 271 0.0 3.2 0.00 0.00 0.00 31 1022.1
20260502021127 14 8 1.6 3.2 0.00 0.00 0.00 31 1022.0
20260502020129 15 292 0.0 0.0 0.00 0.00 0.00 29 1021.8
20260502015128 16 292 0.0 3.2 0.00 0.00 0.00 29 1021.8
20260502015030 16 292 0.0 0.0 0.00 0.00 0.00 29 1021.8
20260502014029 16 272 0.0 4.8 0.00 0.00 0.00 28 1021.6
20260502012130 17 280 3.2 6.4 0.00 0.00 0.00 27 1021.6
20260502011130 17 269 0.0 3.2 0.00 0.00 0.00 27 1021.4
20260502010227 17 293 1.6 9.7 0.00 0.00 0.00 26 1021.5
20260502005227 17 273 3.2 8.0 0.00 0.00 0.00 26 1021.6
20260502004228 18 267 4.8 9.7 0.00 0.00 0.00 25 1021.4
20260502003327 18 251 3.2 12.9 0.00 0.00 0.00 26 1021.4
20260502002327 18 245 1.6 6.4 0.00 0.00 0.00 25 1021.4
20260502001328 18 274 3.2 11.3 0.00 0.00 0.00 26 1021.4
20260502000328 18 255 3.2 6.4 0.00 0.00 0.00 25 1021.4
20260501235328 18 296 3.2 11.3 0.00 0.00 0.00 26 1021.6
20260501234427 18 274 3.2 8.0 0.00 0.00 0.00 26 1021.5
20260501233428 18 211 1.6 4.8 0.00 0.00 0.00 25 1021.5
20260501232430 18 235 1.6 4.8 0.00 0.00 0.00 24 1021.4
20260501230428 19 249 3.2 6.4 0.00 0.00 0.00 25 1021.6
20260501225428 19 199 3.2 6.4 0.00 0.00 0.00 24 1021.4
20260501224429 19 270 3.2 11.3 0.00 0.00 0.00 24 1021.5
20260501223527 19 292 3.2 6.4 0.00 0.00 0.00 22 1021.7
20260501222626 20 240 3.2 9.7 0.00 0.00 0.00 23 1021.6
20260501221629 20 211 1.6 6.4 0.00 0.00 0.00 23 1021.8
20260501220628 20 228 3.2 6.4 0.00 0.00 0.00 21 1021.9
20260501215727 20 273 3.2 6.4 0.00 0.00 0.00 22 1022.0
20260501214728 20 199 3.2 6.4 0.00 0.00 0.00 20 1022.0
20260501211927 20 188 3.2 6.4 0.00 0.00 0.00 20 1022.3
20260501210929 18 112 0.0 0.0 0.00 0.00 0.00 19 1022.5
20260501204929 18 23 3.2 6.4 0.00 0.00 0.00 22 1022.7
20260501203929 18 100 0.0 3.2 0.00 0.00 0.00 22 1022.8
20260501202027 18 24 1.6 8.0 0.00 0.00 0.00 23 1023.0
20260501201927 18 24 1.6 4.8 0.00 0.00 0.00 23 1023.0
20260501201026 18 244 1.6 3.2 0.00 0.00 0.00 24 1022.9
20260501194027 17 177 1.6 4.8 0.00 0.00 0.00 24 1023.3
20260501193028 17 212 4.8 8.0 0.00 0.00 0.00 25 1023.4
20260501191128 17 219 4.8 8.0 0.00 0.00 0.00 26 1023.6
20260501185228 16 254 1.6 3.2 0.00 0.00 0.00 26 1023.9
20260501184228 16 285 0.0 3.2 0.00 0.00 0.00 24 1024.0
20260501184127 16 21 1.6 4.8 0.00 0.00 0.00 25 1024.1
20260501183127 16 202 3.2 4.8 0.00 0.00 0.00 25 1024.1
20260501182128 16 274 1.6 4.8 0.00 0.00 0.00 27 1024.3
20260501181127 16 250 0.0 1.6 0.00 0.00 0.00 27 1024.3
20260501180127 16 235 3.2 8.0 0.00 0.00 0.00 28 1024.5
20260501175128 15 202 0.0 3.2 0.00 0.00 0.00 28 1024.5
20260501174129 15 356 0.0 1.6 0.00 0.00 0.00 28 1024.7
20260501173127 15 282 0.0 4.8 0.00 0.00 0.00 30 1024.7
20260501172128 15 235 3.2 4.8 0.00 0.00 0.00 31 1024.8
20260501171128 13 247 0.0 0.0 0.00 0.00 0.00 34 1024.9
20260501170028 12 225 0.0 3.2 0.00 0.00 0.00 37 1025.1
20260501165029 12 33 1.6 4.8 0.00 0.00 0.00 41 1025.2
20260501164027 11 247 0.0 0.0 0.00 0.00 0.00 42 1025.2
20260501163028 11 360 1.6 4.8 0.00 0.00 0.00 43 1025.4